GFSNGP_925_thetae_126.txt.gz
Theta_e
307 308 309 308 310 310 309 308 310 310 308 307 307 305 298 294 293 292 291 290 289 288 286 286 285 283 282 281 282 282 282 282 281 281 282 282 281 281 281 281 282 282 282 284
307 306 307 309 308 309 309 309 308 308 307 301 297 295 295 295 294 293 291 289 288 286 285 285 284 284 284 281 280 280 279 279 280 280 280 281 281 280 280 281 281 281 281 282
313 306 305 308 307 308 308 305 304 302 302 297 297 297 294 294 293 292 290 288 287 285 284 285 285 284 283 281 280 279 279 278 278 278 278 278 279 279 279 280 280 280 280 281
311 304 307 304 301 303 305 302 302 301 299 297 296 293 290 290 291 290 288 286 284 284 284 284 285 284 283 281 280 279 279 278 278 278 278 278 278 278 279 279 280 279 279 280
308 306 303 301 301 299 300 300 299 299 297 294 292 291 291 290 288 287 283 282 284 284 284 284 284 284 283 282 280 279 278 278 278 278 278 278 278 278 278 278 279 279 279 278
303 305 299 295 300 298 296 297 296 297 297 294 292 295 284 286 284 282 283 284 283 284 283 284 283 283 283 282 280 279 278 278 278 278 278 278 278 278 277 278 278 279 279 278
304 302 301 298 299 297 298 296 294 294 294 293 292 288 282 283 281 283 284 284 284 283 283 283 283 283 282 282 281 280 279 278 278 277 278 278 278 278 277 277 277 277 278 278
302 303 304 297 298 300 293 291 292 290 288 292 288 287 285 284 283 284 284 284 283 283 282 282 282 282 281 281 281 280 279 278 278 277 277 277 278 278 277 276 275 276 276 276
304 302 294 294 292 292 292 291 291 288 286 287 286 286 285 284 284 285 284 284 283 282 282 281 282 282 281 281 281 280 280 279 278 277 277 277 277 277 277 276 276 275 275 275
299 295 294 294 292 290 290 290 286 285 285 288 287 286 286 285 284 284 283 282 282 281 281 281 281 281 281 281 280 280 279 279 278 278 276 276 276 276 277 277 276 275 274 275
298 295 295 293 292 289 290 288 285 283 283 283 284 285 285 284 284 283 282 282 281 281 280 280 280 280 280 280 280 279 278 278 277 277 276 275 276 276 276 276 276 276 275 274
299 297 295 294 290 289 289 288 286 284 284 284 284 284 284 283 283 282 282 281 280 280 279 279 279 279 279 279 279 278 278 277 276 276 275 275 274 274 275 275 275 275 275 275
295 292 291 290 288 288 288 287 285 284 284 284 284 284 283 282 282 282 281 280 280 279 278 278 279 279 278 278 278 278 277 276 275 275 275 274 274 273 273 273 273 274 274 274
291 291 291 289 288 287 287 286 287 285 285 284 284 284 283 282 281 280 279 279 278 278 278 278 278 278 277 277 277 276 276 276 275 275 274 274 273 273 273 272 272 272 272 272
291 290 289 287 287 287 287 286 286 285 285 285 284 283 282 281 280 278 277 278 277 277 277 277 277 277 276 276 276 275 275 275 275 274 274 274 273 273 273 272 271 270 270 271
290 289 288 289 288 288 287 286 286 285 285 283 283 282 280 279 278 277 276 276 276 276 276 276 277 277 276 276 275 275 275 274 274 274 273 272 272 271 271 270 270 269 267 267
290 290 289 288 288 287 287 286 286 286 285 283 282 280 279 278 276 275 275 275 276 276 276 276 276 276 276 276 275 275 274 273 273 272 271 270 270 269 269 268 267 267 266 266
290 288 288 288 288 287 287 286 286 285 284 282 281 279 278 277 275 274 274 274 275 275 276 275 275 275 275 274 274 274 273 272 271 270 269 269 268 267 267 266 266 265 265 265
288 287 287 287 287 287 286 286 285 284 282 281 279 278 277 275 274 274 274 274 274 274 274 275 275 274 274 273 273 272 272 271 270 268 268 267 267 266 265 264 264 264 263 263
286 287 287 286 287 285 283 283 283 281 280 279 278 276 274 274 274 274 274 273 273 274 274 274 274 273 273 272 272 271 270 269 268 267 266 265 265 264 263 262 262 262 261 261
284 285 284 283 283 284 283 282 281 278 278 279 278 275 273 273 274 274 273 272 272 272 273 273 273 273 272 271 270 269 268 268 267 265 264 263 263 262 262 261 260 260 260 260
282 282 281 282 281 280 281 281 280 278 278 278 276 274 273 273 273 274 274 273 272 272 273 273 272 271 270 270 269 268 267 266 264 263 263 262 261 261 260 259 259 259 258 258
282 282 282 281 280 279 279 280 279 278 277 277 276 275 275 274 274 274 273 272 273 272 272 271 270 270 269 268 267 266 265 264 263 262 261 260 260 259 259 259 258 258 258 257
282 281 280 280 279 279 278 277 278 277 277 277 277 276 276 275 274 274 274 273 273 272 271 270 269 268 267 266 265 264 263 262 261 261 260 260 260 260 259 259 258 258 257 257
281 280 280 280 280 280 278 277 277 276 276 276 275 275 275 275 276 274 274 273 272 271 269 268 267 266 265 265 264 263 262 261 260 260 260 260 260 260 260 259 259 258 257 257
281 281 281 281 280 279 278 277 276 276 275 275 275 276 275 275 275 274 273 272 270 270 269 267 266 265 264 263 262 262 261 261 260 260 260 260 260 260 260 259 259 258 257 257
281 281 280 280 279 278 278 277 277 277 276 276 275 275 275 275 274 273 272 270 270 269 268 267 265 264 263 262 262 261 260 260 260 260 260 260 260 260 260 259 259 258 257 257

GFSNGP_925_thetae_129.txt.gz
Theta_e
311 310 310 310 311 311 310 311 313 313 312 310 311 312 310 300 296 294 293 292 290 289 288 287 285 285 283 282 281 281 281 280 280 280 280 280 281 281 281 282 282 281 282 282
310 309 309 311 310 310 310 310 310 311 312 306 301 300 299 298 296 294 293 291 289 288 286 286 285 284 283 282 281 280 280 279 279 279 279 279 279 280 280 281 280 280 280 280
311 309 308 310 310 309 310 310 311 313 311 302 301 301 299 298 296 294 291 289 288 287 286 285 284 284 282 281 280 280 279 279 279 278 279 279 279 279 279 280 280 279 279 279
311 307 312 308 302 304 307 308 306 304 302 301 300 296 295 295 295 292 290 288 287 285 285 284 284 284 282 281 280 279 279 279 278 278 278 278 278 278 278 279 279 279 278 279
311 309 308 307 304 303 305 305 304 304 299 296 295 294 292 292 291 290 287 284 284 284 284 284 284 283 282 281 280 279 279 278 278 278 278 278 278 278 278 278 278 278 278 278
309 310 310 304 301 299 299 304 300 301 299 296 296 300 299 290 288 285 283 283 283 284 284 283 283 283 282 281 280 279 279 278 278 278 278 277 278 277 277 277 277 277 277 277
310 310 307 301 300 298 304 305 299 299 298 296 298 296 289 286 284 284 284 284 284 283 283 283 283 282 282 281 281 279 278 278 278 277 278 278 278 277 277 276 276 276 276 276
308 308 308 300 299 302 301 295 297 297 297 296 289 287 286 284 285 285 285 285 284 284 283 282 282 282 281 281 280 280 279 277 277 277 277 277 278 277 277 276 276 276 275 275
307 307 298 299 297 294 295 296 294 294 292 293 289 288 286 285 285 285 285 284 284 283 283 282 282 282 281 281 280 280 279 279 277 276 276 277 277 277 277 277 276 275 276 275
302 299 297 296 293 293 293 294 291 290 290 289 288 286 286 285 286 285 284 284 283 283 282 282 282 281 281 281 280 280 279 278 277 277 276 276 277 277 277 277 276 275 275 275
300 296 295 295 294 292 291 289 287 286 287 288 287 286 286 286 285 284 283 283 282 282 281 281 280 280 280 280 280 279 278 278 277 276 275 275 275 276 276 275 275 275 275 274
305 299 299 297 293 291 290 288 287 286 285 286 286 286 285 285 284 283 283 282 282 281 280 280 279 279 279 279 279 278 278 277 276 276 275 275 274 274 274 274 274 274 275 274
298 293 293 292 291 290 290 288 287 286 286 285 285 285 284 284 283 282 282 281 281 280 279 279 278 278 278 278 277 276 276 276 275 275 274 274 274 274 274 273 272 272 273 273
292 292 291 290 290 289 288 287 287 286 286 285 285 284 284 283 283 282 281 280 279 279 279 278 278 277 277 277 276 275 275 275 275 274 274 274 274 273 273 272 272 271 270 270
291 291 292 289 288 287 287 286 287 286 286 285 285 284 283 282 281 280 280 279 279 278 278 277 277 276 276 276 275 275 275 274 274 274 273 273 273 272 272 271 271 270 268 268
290 289 289 289 287 287 287 287 287 286 286 285 284 283 282 281 279 278 278 278 278 277 276 277 276 276 276 275 275 274 274 274 273 273 272 271 271 271 270 270 269 268 267 266
291 291 289 289 288 287 287 287 286 286 285 284 283 281 280 279 278 277 276 277 277 276 276 277 276 276 275 275 275 274 273 272 271 271 271 270 269 269 268 268 267 267 266 263
291 291 290 289 289 288 286 286 286 285 284 283 281 279 278 277 277 275 274 275 275 275 275 275 275 275 275 274 274 273 272 271 270 269 268 268 268 266 266 265 265 264 264 263
289 289 289 288 288 287 287 286 286 284 282 280 279 278 278 276 274 274 274 275 275 274 274 274 274 274 273 273 273 272 270 270 268 268 266 265 265 264 264 263 263 262 262 262
288 288 288 287 287 286 285 284 283 281 281 280 278 276 275 274 274 273 274 275 275 275 274 274 274 273 272 272 271 270 269 268 267 265 265 264 263 262 262 261 260 260 260 260
286 285 284 283 283 284 284 283 281 280 279 279 278 276 275 273 273 273 273 273 273 274 274 273 273 272 271 270 270 269 268 267 266 264 263 262 261 261 260 259 259 258 258 258
282 282 282 282 282 281 282 282 281 279 278 278 277 275 274 273 273 274 274 273 272 273 273 272 272 271 271 270 269 267 266 265 264 263 262 261 260 260 259 259 259 257 257 257
283 283 282 282 281 280 280 280 279 279 277 277 276 274 274 274 274 274 273 272 272 272 272 272 271 270 269 268 267 266 265 264 263 262 261 261 260 260 259 259 258 258 258 257
282 282 281 281 280 279 279 278 278 278 278 277 276 275 274 274 275 274 274 272 273 272 272 270 269 268 267 267 266 265 264 263 262 261 260 260 260 260 259 259 259 258 258 258
282 281 281 280 281 281 279 278 277 277 277 276 275 275 276 275 275 273 273 273 272 272 270 268 268 267 266 265 264 263 263 262 261 260 260 260 260 260 260 260 259 259 258 258
282 282 282 282 281 280 279 278 278 277 277 276 276 275 274 275 275 274 273 272 271 271 270 268 267 266 265 264 263 263 262 261 260 260 261 260 260 261 260 260 259 259 259 258
282 282 282 281 280 279 278 278 278 277 276 276 275 274 274 275 274 273 272 271 270 270 268 267 266 265 264 263 262 261 261 261 261 260 260 261 261 260 260 260 260 259 259 258

GFSNGP_925_thetae_132.txt.gz
Theta_e
309 309 309 310 311 310 311 313 315 314 312 312 311 312 313 312 310 305 301 299 297 294 293 291 290 288 286 285 284 284 284 283 282 283 282 282 282 283 283 284 283 283 283 283
309 308 309 309 309 309 310 311 312 312 313 311 311 310 311 310 306 303 299 296 293 292 292 290 288 286 285 284 283 283 283 282 281 281 281 281 281 282 282 282 282 281 281 282
311 308 310 310 309 309 310 310 311 316 314 312 311 308 308 306 303 301 297 293 292 292 290 288 287 285 284 283 283 282 282 281 281 281 281 281 281 281 282 282 281 281 280 280
311 309 313 308 307 307 310 311 311 312 312 309 307 305 303 303 302 298 295 293 291 289 288 286 286 284 283 282 282 282 281 281 280 280 280 280 280 280 281 281 281 280 279 279
309 307 307 307 310 310 310 309 308 309 309 305 302 300 297 298 298 295 292 290 288 287 286 285 285 284 283 282 282 281 281 281 280 280 280 280 280 280 280 280 280 279 278 278
306 307 307 311 307 305 305 309 307 306 307 302 301 307 306 295 293 290 287 287 286 286 285 285 285 284 283 282 281 280 280 280 280 280 280 280 280 279 279 280 279 279 278 278
311 310 307 307 305 303 309 310 305 305 304 302 303 301 296 292 289 287 286 286 286 285 285 285 285 284 283 282 280 280 280 279 279 280 280 280 280 279 279 279 279 279 279 278
311 312 313 305 303 305 305 302 303 304 302 301 294 291 290 288 287 286 286 286 286 286 285 284 283 283 283 282 281 281 279 279 279 279 280 280 280 280 279 279 279 279 278 278
309 309 305 304 304 302 301 302 302 302 300 299 293 290 289 288 287 287 287 286 286 286 285 284 284 283 282 282 281 281 280 279 279 278 279 279 279 280 280 279 279 278 278 278
308 308 302 303 299 299 299 300 298 298 298 295 292 290 289 288 288 287 286 286 286 285 285 284 284 283 283 282 281 281 280 279 279 278 278 279 279 278 278 278 278 278 277 277
307 303 299 299 300 299 297 296 294 293 294 293 292 290 289 288 287 286 286 285 285 285 285 284 283 283 282 281 281 280 279 279 279 278 278 277 276 277 277 275 276 276 276 276
308 304 304 304 300 297 295 294 293 292 291 291 290 289 288 288 287 286 285 285 285 285 284 283 282 281 281 281 280 280 279 279 278 278 277 277 277 276 274 274 273 273 274 274
304 300 299 298 297 295 294 292 291 291 291 289 289 288 288 286 286 285 285 285 284 283 282 282 281 280 279 278 278 279 279 278 277 277 277 277 277 277 277 275 273 271 271 272
297 296 294 295 294 293 292 291 290 290 289 288 288 288 287 286 285 285 284 284 283 282 282 281 280 279 279 278 277 277 277 276 277 277 277 277 276 276 275 275 274 273 271 270
296 295 296 294 292 291 290 290 290 289 289 288 288 287 287 286 285 285 283 282 281 281 281 280 279 278 278 277 277 277 277 277 277 276 275 275 275 275 274 274 273 272 270 269
294 293 293 292 291 290 290 290 290 288 288 287 287 286 286 285 284 283 282 281 281 281 280 278 278 277 277 276 276 276 275 274 275 275 274 274 274 273 273 273 272 271 269 267
294 293 292 291 290 290 290 290 289 288 287 287 286 285 284 283 282 281 280 280 279 279 278 277 276 276 276 277 277 277 276 274 273 274 273 272 272 272 271 271 270 270 269 264
294 295 293 292 290 289 289 288 288 287 287 286 284 283 281 281 281 279 278 277 276 277 277 276 275 275 275 276 276 275 275 274 273 272 272 271 271 270 270 269 268 268 268 266
293 293 292 290 289 289 288 288 287 287 285 283 282 281 280 280 278 277 276 276 276 276 275 275 275 275 275 274 274 274 274 273 272 271 270 269 269 268 268 268 267 266 266 266
292 291 290 289 288 288 288 287 286 284 283 282 281 280 279 277 276 276 277 277 278 277 275 275 274 274 273 272 272 273 272 272 270 270 269 269 268 267 266 264 265 265 265 264
290 290 289 288 287 287 287 285 284 283 283 281 281 280 278 276 276 276 277 277 275 275 275 274 274 273 272 271 271 271 271 270 269 269 268 267 267 266 265 265 264 264 264 263
288 288 287 286 286 285 285 284 284 282 281 281 280 278 276 276 276 276 277 277 275 274 274 273 273 271 271 270 270 270 269 268 268 267 266 266 266 265 264 263 263 263 262 262
288 287 285 285 285 285 284 283 282 282 281 279 278 277 278 277 276 276 276 274 274 273 274 273 272 271 270 270 269 268 267 266 266 265 264 264 264 263 263 262 262 261 261 261
287 286 286 285 284 283 284 282 282 281 280 279 278 277 278 277 276 276 276 274 273 272 272 272 271 269 268 268 267 267 266 265 264 264 262 262 262 261 261 260 260 260 259 259
287 286 285 284 285 285 284 282 281 280 279 279 277 277 277 277 278 276 275 273 272 272 270 270 269 268 267 267 266 265 265 264 263 263 262 262 261 260 260 260 259 259 259 258
287 287 287 286 287 285 283 282 282 281 280 279 278 277 277 277 276 275 273 271 271 270 269 269 267 266 266 265 264 264 264 262 262 261 261 260 260 260 259 259 259 259 258 258
286 285 285 285 284 283 282 283 282 281 280 280 279 278 276 275 274 273 272 270 269 269 267 267 266 266 265 264 263 263 262 262 261 261 260 260 260 259 260 260 259 259 259 260

GFSNGP_925_thetae_135.txt.gz
Theta_e
308 308 308 309 309 309 309 310 313 313 314 313 313 313 312 315 314 313 309 306 304 302 299 297 294 292 290 289 288 288 287 285 285 285 285 284 284 285 285 285 284 283 283 283
307 305 306 307 307 307 308 308 309 310 310 310 311 312 312 313 314 312 309 305 302 299 297 294 291 290 288 287 287 286 285 284 283 283 283 283 283 284 284 283 283 282 281 282
310 308 308 308 308 308 308 308 309 312 310 310 310 313 313 312 313 311 307 302 298 295 293 291 289 288 287 286 285 284 283 283 282 282 282 282 283 283 282 282 282 281 280 280
311 308 310 307 307 308 309 309 309 309 309 311 312 311 310 309 309 307 303 298 295 293 291 289 288 286 285 284 284 284 283 282 282 282 282 282 282 282 282 281 281 280 280 279
310 309 307 306 307 313 312 309 309 309 309 310 309 306 305 304 305 302 297 294 292 290 288 287 286 285 284 284 284 283 282 282 281 282 281 282 282 282 281 281 281 281 280 279
309 308 309 310 306 306 309 313 309 309 309 310 307 310 309 300 298 295 291 289 288 287 287 286 286 285 284 283 282 282 282 282 282 282 282 281 281 281 281 281 281 281 280 279
311 310 308 306 306 307 309 310 308 307 308 309 308 303 299 296 292 290 289 288 287 286 286 286 286 285 283 282 282 281 281 281 281 282 281 282 282 281 281 282 281 281 281 280
310 311 311 307 307 309 309 306 306 306 306 305 297 295 293 291 290 289 288 288 287 287 286 285 285 284 283 282 281 281 280 281 281 281 281 282 282 282 281 281 281 281 281 280
307 309 310 308 308 308 305 306 305 306 304 299 294 293 291 290 289 289 288 289 288 287 286 286 285 284 284 283 283 282 281 280 280 281 281 281 281 281 281 281 281 280 280 279
308 308 308 309 306 303 302 304 304 304 303 297 294 292 291 290 289 289 289 289 288 286 287 287 286 285 283 283 282 282 281 281 280 280 280 280 280 279 278 279 279 279 279 277
309 307 307 306 306 304 301 302 300 300 300 295 293 292 291 290 290 289 288 288 287 287 287 286 286 285 284 283 283 282 281 281 280 280 280 278 277 277 277 275 275 276 276 276
310 307 309 308 306 304 303 299 298 297 296 295 293 291 291 290 289 288 287 287 287 287 287 285 285 284 283 283 282 281 281 281 280 280 280 280 279 276 274 273 273 273 273 273
307 304 304 302 303 302 300 297 296 296 294 293 292 291 290 289 288 287 287 287 287 286 285 284 283 282 281 281 281 281 281 280 279 280 280 280 279 279 278 274 273 272 271 271
303 301 300 300 299 298 297 295 294 294 292 291 290 290 289 288 287 287 286 286 286 285 284 283 282 281 280 280 279 279 279 279 279 279 279 279 278 278 278 277 277 275 272 271
301 300 299 298 297 296 294 294 293 292 291 291 290 289 288 287 287 287 286 286 285 284 283 282 281 280 279 279 279 279 279 279 279 278 277 277 277 277 277 276 276 274 272 271
299 298 297 296 295 294 294 294 293 291 291 290 290 289 288 288 287 286 285 284 284 283 283 281 280 279 278 279 278 278 277 277 278 277 277 276 276 276 275 275 275 274 270 268
298 297 296 295 294 293 293 293 291 290 289 289 288 288 287 287 286 285 284 283 282 281 280 279 278 278 278 278 279 279 277 276 275 276 276 275 275 274 274 273 273 273 271 266
297 297 296 295 293 293 292 291 290 289 289 288 287 287 286 285 285 283 282 281 280 280 279 278 277 277 277 278 278 278 277 276 276 275 275 274 274 273 273 272 271 271 270 269
296 296 295 293 292 291 291 290 289 288 288 286 285 284 283 283 281 280 280 279 280 279 278 277 277 277 276 276 276 276 276 275 275 274 272 272 272 272 272 271 271 270 270 269
295 293 292 291 290 290 290 289 288 287 286 285 284 283 283 281 280 279 279 280 279 279 277 276 276 276 275 274 275 275 275 275 274 273 273 272 272 271 269 267 269 269 269 268
294 292 291 290 289 289 289 288 287 286 285 284 283 283 281 280 279 279 280 280 278 277 276 276 276 275 274 273 274 274 274 274 273 272 272 271 270 270 270 269 269 268 268 267
290 290 289 289 289 288 287 287 286 285 284 283 283 281 280 279 279 280 280 280 277 276 275 275 275 274 273 273 273 273 272 272 272 271 271 271 270 269 269 268 268 267 267 266
289 288 287 287 287 287 286 286 285 284 283 283 281 280 280 280 280 280 279 278 277 276 276 275 273 272 272 273 273 272 272 271 271 270 270 269 269 268 268 267 266 266 265 265
288 288 287 287 287 286 286 285 284 284 284 282 281 280 281 280 280 279 279 277 276 275 276 273 271 271 272 272 272 271 270 270 269 269 268 267 267 265 266 265 265 265 263 263
289 288 287 286 287 287 287 285 284 283 282 282 281 280 280 280 280 279 277 276 275 275 272 269 271 270 271 271 270 270 269 269 268 267 267 267 266 265 265 264 263 264 263 262
290 289 288 288 289 288 286 285 285 283 283 282 281 280 280 280 279 278 276 275 274 274 270 268 269 270 270 270 269 268 268 267 265 266 266 265 265 264 264 263 262 262 262 262
290 289 289 288 288 287 286 285 285 284 283 282 281 280 280 279 277 277 275 274 274 272 270 270 268 269 269 268 268 267 267 266 266 264 264 264 264 264 263 262 262 262 261 260

GFSNGP_925_thetae_141.txt.gz
Theta_e
306 305 304 305 305 306 306 307 309 308 308 310 307 306 306 310 314 314 312 308 305 303 301 298 294 291 290 289 288 288 287 286 285 284 284 284 284 283 282 280 279 280 279 278
308 306 306 306 306 305 305 305 305 304 305 305 307 310 312 312 315 313 309 306 303 303 299 294 291 290 289 288 287 286 283 284 283 283 283 283 282 281 280 279 278 278 278 278
309 308 309 308 307 307 307 307 307 306 305 307 306 311 311 310 313 312 308 306 305 300 295 291 289 289 288 286 286 284 283 283 282 282 282 282 281 281 280 279 278 278 277 278
310 307 307 305 307 307 307 306 305 305 305 305 307 306 302 301 306 310 307 301 294 291 289 289 288 287 286 286 283 282 283 282 282 282 282 282 282 282 282 280 278 278 277 277
306 305 305 305 305 304 304 304 305 305 305 308 306 304 300 297 294 298 295 292 290 289 288 287 287 286 285 284 283 282 282 281 282 281 282 281 281 281 281 281 279 277 277 276
302 304 300 303 305 305 306 305 307 307 309 308 307 303 303 295 293 292 290 290 288 287 287 286 285 285 284 283 282 282 282 281 281 281 281 281 281 282 282 281 280 278 276 275
304 305 304 304 305 305 307 304 307 306 307 307 302 300 297 292 291 290 289 288 287 287 286 285 285 284 283 282 282 282 282 282 282 282 281 281 281 282 282 281 280 278 276 274
305 308 308 307 307 308 305 307 307 306 305 300 297 294 293 291 290 289 289 288 287 286 286 285 284 283 282 281 281 281 282 282 282 282 282 282 282 281 281 280 278 277 275 273
305 303 304 306 305 304 306 306 306 305 299 297 295 293 292 290 290 289 289 288 287 286 286 285 284 283 281 281 281 281 281 281 281 280 280 280 280 279 278 277 277 274 273 272
305 305 306 306 305 305 304 305 302 300 296 295 294 292 291 290 289 289 288 287 287 286 286 285 284 283 281 281 281 281 281 281 281 281 278 276 275 275 275 275 274 274 272 272
303 303 304 306 306 304 305 303 300 297 295 293 293 292 290 290 289 289 288 288 287 286 286 286 285 284 283 283 282 282 281 280 280 279 278 276 275 274 274 274 273 272 272 272
302 305 305 306 305 304 303 301 298 295 294 293 292 291 290 289 289 290 290 288 287 287 287 287 285 284 284 283 282 281 281 280 279 278 277 276 275 275 275 274 274 273 273 273
304 305 303 302 302 302 301 298 297 295 294 293 291 290 290 289 290 289 288 287 287 288 287 285 284 284 284 284 282 281 281 281 280 280 279 277 276 275 274 274 274 273 273 273
301 303 301 301 299 299 298 297 298 295 294 293 291 291 290 289 289 288 288 288 288 287 284 284 283 282 282 282 281 281 280 280 280 280 279 279 278 277 275 273 273 271 271 272
301 302 300 299 298 297 296 294 293 293 293 292 291 290 289 289 288 288 288 288 287 285 283 283 282 281 281 281 281 280 280 280 280 279 278 278 278 277 277 275 272 270 270 271
302 301 298 298 297 295 295 293 292 292 291 291 290 289 288 288 287 287 287 287 286 283 282 281 281 280 280 280 279 280 280 279 278 278 277 277 277 276 275 274 272 270 269 269
299 298 297 296 296 295 294 292 291 291 290 290 289 288 288 287 287 287 286 286 285 282 282 281 280 279 279 280 280 279 279 278 278 277 276 276 275 275 274 273 271 269 269 269
298 297 296 296 294 293 292 291 290 290 290 289 289 288 288 287 285 282 282 282 281 281 281 281 280 279 279 279 278 277 277 277 277 276 276 275 274 274 273 272 271 270 269 268
297 296 295 294 293 292 290 290 290 290 289 289 288 286 286 283 282 281 281 280 280 279 279 279 278 278 279 279 279 277 277 277 276 275 275 274 273 273 272 272 271 270 269 268
294 293 293 292 292 291 289 289 289 288 288 287 286 284 283 282 282 281 281 280 280 280 279 278 278 278 278 278 278 277 276 275 275 274 273 273 273 272 271 271 270 269 269 268
292 291 290 290 290 290 289 289 288 286 286 286 284 282 281 281 281 281 281 280 280 280 278 277 277 277 277 277 277 276 276 275 274 274 274 273 272 271 270 270 270 269 268 267
290 290 289 289 289 289 288 288 287 285 284 284 283 282 281 280 280 280 281 280 279 279 278 277 277 276 275 276 276 276 275 274 274 273 273 272 271 271 270 270 269 268 268 267
290 289 289 289 288 288 287 286 286 285 284 284 282 281 280 280 280 280 280 279 279 278 277 276 276 275 275 275 275 275 274 274 273 273 272 272 271 271 270 269 268 268 267 266
289 289 289 288 288 287 287 286 285 285 284 284 283 282 281 280 280 280 280 279 279 277 276 276 275 275 274 274 274 274 273 273 272 272 271 271 271 270 269 268 268 267 266 266
288 287 287 287 287 287 286 286 285 284 284 282 282 281 281 280 280 281 280 279 278 277 276 276 275 274 274 274 274 273 273 272 272 271 270 270 269 269 268 268 267 266 265 265
287 287 287 287 286 286 285 285 285 284 283 282 281 281 281 281 281 281 279 278 277 276 276 276 275 273 274 273 273 272 272 271 271 270 270 268 268 267 267 266 266 265 265 264
287 287 287 287 287 287 285 285 284 284 283 282 282 281 282 281 280 279 278 277 276 276 276 275 274 272 273 273 272 271 271 270 270 269 268 268 267 267 266 266 265 265 264 263

GFSNGP_925_thetae_144.txt.gz
Theta_e
305 305 305 306 306 306 305 307 309 307 306 305 304 305 306 307 310 313 310 305 303 302 299 298 294 292 290 289 289 288 288 286 285 284 284 284 283 281 279 279 278 278 278 279
308 307 307 307 306 305 306 306 306 305 305 304 304 307 311 314 314 313 312 306 303 301 299 295 292 289 288 288 287 287 286 284 283 283 283 282 281 279 278 277 278 278 278 278
309 308 308 308 306 306 305 306 307 307 305 304 305 311 308 307 312 312 310 305 303 301 298 291 289 288 287 287 286 284 283 282 283 283 282 281 280 279 278 277 277 278 278 279
311 307 310 306 305 306 307 307 306 304 304 303 305 302 300 298 301 308 305 303 301 296 290 289 288 287 287 286 285 283 282 282 282 282 281 281 281 279 278 277 276 276 277 278
308 307 305 303 303 303 304 304 303 304 308 306 303 301 301 296 295 299 294 291 289 288 288 288 287 287 286 284 283 282 282 282 282 282 281 281 282 280 278 277 276 276 276 276
302 304 300 301 302 303 304 303 304 306 308 306 304 301 298 296 293 289 288 288 288 288 287 287 286 286 284 282 282 281 281 281 281 281 281 281 281 281 279 278 276 275 275 275
302 302 303 302 302 303 304 303 306 305 306 306 303 300 296 292 291 288 288 288 287 287 286 285 285 284 283 282 281 281 281 281 281 281 281 281 282 282 280 277 276 274 274 274
302 303 305 304 304 306 304 305 305 304 303 303 297 295 293 292 290 289 288 287 286 285 284 284 284 284 282 282 282 282 282 282 281 281 281 282 282 280 279 277 275 273 273 274
303 302 302 305 305 305 303 303 305 304 301 298 295 294 292 291 290 289 288 286 286 285 284 284 283 283 281 281 282 282 282 282 282 281 281 280 281 279 278 276 273 272 272 273
302 302 303 303 303 304 303 303 302 300 296 295 295 293 291 290 290 289 288 287 286 286 284 283 282 282 281 281 281 281 281 281 279 279 278 278 277 276 276 275 273 272 272 273
300 300 303 305 302 304 304 302 300 296 293 293 293 292 291 290 290 289 288 286 286 286 285 284 283 282 281 281 281 281 281 281 279 277 275 275 275 274 273 273 272 272 273 273
299 300 302 302 303 304 302 302 298 294 290 290 292 291 290 290 289 288 287 286 286 286 286 285 284 282 281 281 281 281 280 279 279 277 276 275 274 274 274 274 274 274 273 273
298 300 301 302 303 300 301 299 296 294 291 290 291 290 290 289 289 288 288 286 286 286 286 285 284 283 283 282 281 281 280 279 278 277 276 275 275 275 275 274 274 274 274 274
298 300 301 301 299 299 297 296 297 294 293 292 291 290 289 289 289 289 287 287 287 287 286 285 284 283 283 282 282 281 280 280 279 278 278 276 275 274 274 273 272 272 272 273
297 298 297 298 298 297 295 294 293 292 291 291 291 290 289 289 288 288 287 287 287 285 283 283 283 283 283 283 282 281 280 280 280 280 279 278 277 275 274 273 271 270 271 271
297 298 297 297 296 294 293 292 291 290 291 291 290 290 289 288 287 287 288 287 284 283 282 282 282 281 281 281 281 280 280 280 280 279 278 278 278 276 275 273 270 269 270 269
297 297 296 296 294 293 292 292 291 290 290 290 289 288 288 287 287 287 287 286 284 282 283 283 282 281 281 281 280 280 280 279 279 278 277 277 276 275 274 272 270 269 269 269
297 298 296 295 293 292 291 291 290 290 290 289 288 287 287 286 286 284 285 284 282 282 282 283 282 280 279 279 280 280 279 278 277 277 276 276 275 275 274 272 270 269 268 268
296 295 294 293 292 291 290 290 290 290 289 288 286 285 286 285 284 283 282 282 280 279 280 281 280 279 279 279 279 279 278 277 277 276 276 275 274 274 273 272 270 269 268 267
293 292 292 291 291 291 289 289 289 288 288 287 286 283 282 282 282 281 281 280 280 281 281 280 279 279 279 279 279 277 277 277 276 275 275 274 274 273 272 271 270 269 269 268
291 291 289 290 290 289 289 288 288 287 286 287 284 282 281 281 282 281 280 280 280 281 280 279 278 278 278 279 278 277 277 276 276 275 274 273 273 272 272 271 270 269 268 268
290 290 289 289 289 288 288 288 287 285 285 285 284 282 281 280 280 280 281 281 281 280 279 278 278 278 278 277 277 277 276 275 275 274 273 273 273 271 270 270 270 269 268 268
288 289 289 288 288 288 287 287 286 286 284 284 283 282 281 281 281 280 280 280 281 280 279 278 278 277 277 276 276 276 276 276 275 274 273 273 272 272 271 270 269 269 268 267
288 288 288 288 287 286 286 284 285 285 285 284 284 284 282 280 280 281 281 280 280 279 278 278 277 276 275 275 275 276 275 275 274 274 273 272 272 271 271 270 269 268 268 267
288 288 287 287 287 287 286 285 285 284 283 283 283 282 282 282 281 280 280 280 280 279 278 277 277 276 275 274 275 275 275 274 273 273 272 272 271 271 270 270 269 268 267 267
288 288 287 287 287 286 286 285 285 284 283 281 281 281 281 281 280 280 280 280 279 278 278 277 276 275 275 274 274 274 274 273 272 272 272 271 271 270 269 269 268 267 266 266
287 287 287 287 286 286 285 285 284 284 283 282 281 281 281 280 280 280 280 279 278 278 277 276 276 275 275 274 274 274 273 273 272 271 271 270 269 269 268 267 267 266 265 265

GFSNGP_925_thetae_147.txt.gz
Theta_e
305 305 305 308 307 306 307 306 309 308 308 307 306 304 303 306 307 309 312 307 303 302 300 299 297 295 291 291 289 288 287 286 285 285 284 283 281 279 279 278 279 279 279 279
306 305 306 307 307 306 306 306 307 308 309 306 304 303 309 311 311 312 309 306 303 301 299 297 294 291 289 288 289 288 286 285 284 284 283 281 279 278 278 278 278 278 278 278
308 308 308 309 306 305 305 305 306 309 306 304 303 306 309 309 311 310 308 304 302 300 298 294 291 290 288 289 287 286 285 284 283 283 281 280 279 278 277 278 278 278 278 278
309 307 309 305 304 304 305 306 306 306 304 303 303 304 302 300 300 303 307 303 300 298 294 290 289 288 289 287 285 284 283 283 282 281 280 280 279 277 276 276 277 278 278 278
307 307 305 304 303 303 303 302 302 303 303 306 302 302 302 298 298 296 295 292 296 294 290 289 288 287 288 284 284 282 282 282 282 281 281 280 278 278 277 277 276 276 276 277
304 305 301 300 302 302 302 302 301 302 307 304 302 301 299 297 294 290 287 289 289 289 289 288 286 287 285 284 283 282 282 282 282 281 281 281 280 278 276 276 275 275 275 276
303 302 303 301 301 301 302 301 302 305 306 304 303 300 295 293 291 288 287 288 288 288 287 286 286 285 284 282 282 282 282 281 281 281 281 281 280 278 277 276 274 274 274 275
296 295 299 303 304 304 301 302 305 304 303 303 298 295 294 292 290 289 288 288 287 286 285 285 285 286 282 281 281 281 281 281 281 281 281 281 282 279 277 276 274 274 274 274
299 299 298 301 301 302 303 303 303 303 302 300 296 295 293 291 289 289 287 287 286 285 284 284 285 285 282 281 281 281 281 281 281 281 281 281 281 279 277 275 273 273 274 274
301 300 300 300 302 301 301 302 301 301 299 295 295 294 292 291 290 289 287 285 285 284 284 283 283 282 283 281 282 281 281 281 281 281 280 280 279 278 276 274 273 273 273 274
298 299 299 300 300 301 302 302 301 298 295 294 294 293 292 291 290 289 288 286 286 285 284 283 282 282 282 282 282 281 281 280 279 278 278 277 276 276 275 274 273 273 273 273
297 297 298 298 300 301 301 302 302 296 290 290 293 292 291 290 290 289 288 287 286 286 285 283 282 282 281 281 281 281 281 279 277 276 275 274 274 273 273 273 273 273 273 273
297 296 298 298 299 301 302 302 299 295 292 290 289 290 291 290 289 289 287 286 286 286 285 284 283 282 281 281 281 281 280 279 278 275 275 275 274 275 275 275 275 274 275 274
297 297 298 300 300 299 299 298 298 294 293 292 291 291 290 289 289 288 287 286 286 285 285 284 283 282 281 281 281 281 280 280 279 277 276 275 275 274 274 274 273 273 273 273
295 295 295 294 297 297 296 294 293 292 291 291 290 290 289 289 289 289 287 286 286 286 285 284 283 283 282 282 281 281 280 279 279 277 277 276 275 274 274 273 272 271 272 271
296 294 294 294 295 295 293 293 292 290 289 288 290 289 289 289 289 287 287 286 285 284 284 284 284 284 283 283 282 281 280 280 279 278 278 277 275 275 274 273 271 270 270 270
294 295 296 295 294 293 294 293 292 291 289 291 290 289 288 288 287 287 286 286 286 285 284 284 284 283 284 283 282 281 280 280 280 279 279 278 277 276 275 274 272 270 270 269
295 294 295 295 294 293 291 290 289 289 290 290 288 288 287 287 287 285 285 284 284 283 283 283 282 281 281 281 281 280 280 280 279 278 278 277 277 277 275 274 272 270 269 268
293 293 294 293 292 291 291 290 289 290 289 288 286 285 286 286 285 284 284 282 281 281 282 283 283 282 281 281 280 280 280 279 278 277 277 276 276 275 274 273 271 270 269 268
293 292 292 291 291 291 287 289 289 288 288 287 285 283 282 284 284 283 283 281 282 282 283 283 281 280 279 279 279 280 279 278 277 277 276 276 275 275 274 273 272 271 270 269
291 291 291 290 287 290 289 289 288 286 286 286 284 282 282 283 283 282 280 280 281 282 282 281 280 279 279 279 279 278 278 278 277 276 276 275 275 274 273 272 272 271 270 269
291 290 290 288 289 288 288 288 288 287 285 284 284 283 282 279 281 281 282 282 281 281 281 280 280 279 279 279 279 278 277 277 276 276 275 275 274 273 273 272 271 271 270 269
289 289 289 288 288 287 287 287 287 287 285 284 283 282 282 281 281 280 280 281 282 281 281 280 280 279 278 278 279 278 277 277 276 275 276 275 273 273 272 272 271 270 269 269
287 288 288 288 287 286 286 285 285 285 285 285 285 285 283 280 280 281 282 282 282 281 280 280 279 278 277 277 277 277 276 276 276 276 275 274 273 273 272 271 270 270 269 268
288 288 287 287 287 287 286 285 284 283 283 282 283 282 283 283 283 282 281 281 281 281 280 279 278 278 277 276 276 276 276 276 275 275 274 273 273 272 272 271 271 270 269 268
288 288 288 288 287 287 286 285 284 283 283 281 281 282 282 282 282 282 281 281 280 280 279 279 278 277 276 275 275 275 275 275 275 274 273 273 272 272 271 271 270 269 269 268
288 287 287 287 287 286 286 285 284 283 283 283 282 281 281 281 280 280 280 280 279 279 279 278 277 276 276 276 275 275 274 274 274 273 272 272 271 271 270 270 269 268 268 267

GFSNGP_925_thetae_150.txt.gz
Theta_e
306 305 306 307 308 306 309 310 310 310 310 309 308 308 308 307 305 304 309 307 302 300 298 298 297 296 293 292 291 290 289 287 286 285 284 282 281 280 279 279 279 279 279 279
308 306 307 308 308 308 307 307 308 308 308 307 306 306 304 305 305 309 309 309 303 301 300 299 297 293 292 290 290 290 288 286 285 284 283 281 279 278 278 278 278 278 278 278
307 306 308 310 307 307 307 306 306 308 307 305 304 304 303 305 307 309 309 306 303 301 300 298 294 292 291 289 289 289 287 285 284 283 281 279 278 278 278 278 278 278 278 277
309 308 310 306 303 304 305 304 304 305 305 303 302 302 302 302 303 303 303 304 300 298 296 293 292 292 289 289 289 287 285 284 283 282 280 278 277 277 277 278 278 278 278 278
307 306 305 304 303 303 303 303 302 302 302 302 303 302 302 300 298 298 295 291 297 296 292 292 291 289 288 287 285 284 283 283 282 281 279 278 277 276 276 277 277 277 277 277
304 305 303 302 301 301 301 301 300 300 301 304 302 303 302 299 295 293 288 289 291 292 291 289 288 288 287 285 285 283 282 282 281 280 280 278 278 277 276 276 275 275 276 276
305 303 304 301 300 300 302 301 303 304 303 303 302 301 296 292 291 289 288 289 290 290 289 287 287 287 285 284 283 283 282 282 281 281 281 279 278 277 276 275 274 275 275 275
297 294 299 299 303 302 300 300 302 302 302 302 299 296 294 293 291 289 289 289 288 287 286 286 286 287 284 283 283 282 282 281 281 281 281 279 278 276 276 275 274 274 274 274
298 298 297 298 300 301 301 301 301 301 300 299 296 296 294 292 290 289 288 287 286 286 285 284 285 286 283 282 282 281 281 281 281 281 281 280 278 277 275 274 274 274 274 273
299 298 297 298 299 301 300 300 299 299 299 297 295 295 293 291 290 288 287 286 286 285 285 284 284 285 285 282 281 281 281 281 280 281 280 279 278 278 276 274 273 273 274 274
298 298 298 297 299 299 299 299 299 299 298 294 291 294 293 291 290 289 286 285 285 285 285 284 283 283 282 281 281 281 281 280 279 279 279 278 278 277 276 274 273 273 274 274
296 297 296 294 297 298 298 298 298 300 293 292 293 293 292 291 290 289 288 286 286 285 285 283 282 282 282 282 282 282 280 279 278 278 277 277 276 275 274 273 273 273 274 273
297 295 295 296 297 298 298 298 298 298 295 292 290 292 291 291 290 289 288 287 286 286 284 283 282 282 282 282 282 281 280 278 277 277 276 274 273 273 274 274 275 275 274 274
295 296 296 296 295 296 297 298 299 296 294 292 292 291 291 290 290 289 287 287 286 285 284 283 282 282 281 281 282 281 280 279 277 275 275 274 275 274 275 275 274 274 274 273
294 294 295 294 295 295 295 294 294 293 291 290 291 291 290 290 290 288 287 286 286 285 284 283 282 282 281 281 281 281 280 279 278 276 276 275 275 274 274 274 273 273 273 271
294 293 293 293 293 292 293 293 294 291 289 288 289 290 289 289 289 288 287 286 286 285 284 284 283 282 281 281 281 281 280 280 279 278 276 275 275 274 274 273 273 272 271 271
294 294 293 293 293 293 293 293 294 293 290 289 289 289 289 289 288 287 286 286 286 285 285 285 284 283 282 282 281 281 280 279 279 278 277 276 276 275 274 274 273 271 271 271
293 293 292 293 293 293 292 292 292 291 290 291 290 288 288 287 287 285 285 285 285 284 285 285 285 284 283 282 282 281 281 280 279 278 278 277 276 276 275 275 274 272 271 270
293 292 291 292 292 292 292 290 290 290 290 289 288 287 286 286 286 285 284 284 283 281 282 283 284 284 283 283 282 282 280 279 279 279 279 278 277 277 276 275 274 273 271 270
292 291 291 291 291 290 288 289 289 288 288 287 285 283 282 283 284 284 284 282 283 284 283 282 282 281 281 281 281 280 280 279 279 278 278 277 276 276 275 275 274 272 271 270
290 290 289 287 285 289 289 289 288 286 285 286 284 282 282 283 283 283 281 280 282 283 283 282 283 282 281 281 280 280 280 279 279 278 277 276 276 275 275 274 273 272 271 270
286 287 286 285 285 286 289 289 289 286 285 284 284 283 282 279 281 281 282 283 282 282 283 282 282 281 279 279 279 279 279 279 278 277 277 276 275 275 275 273 273 272 271 271
289 289 288 287 287 287 287 288 287 287 285 284 283 282 282 281 281 280 279 282 283 281 281 282 281 280 279 279 279 279 278 277 277 277 276 276 276 275 274 273 273 272 271 270
289 289 288 288 287 287 286 285 286 286 285 284 284 284 283 280 280 281 283 283 282 282 282 281 280 280 279 279 278 278 278 277 277 276 276 276 275 275 273 273 272 272 271 270
288 288 287 287 288 287 286 285 284 283 283 282 282 282 283 283 284 282 282 283 282 282 281 281 280 279 278 278 278 278 278 277 277 276 276 276 275 274 273 273 272 272 271 270
288 288 288 288 288 287 286 285 284 283 283 281 281 282 282 282 282 283 282 282 282 281 281 280 279 279 278 277 277 277 277 276 276 276 275 275 274 273 273 272 272 271 271 270
288 288 288 287 287 286 286 285 284 283 284 283 282 282 281 281 281 281 281 281 281 280 280 279 279 278 278 277 277 276 275 275 275 275 274 273 273 272 272 272 271 271 270 270